TimeCDT,TemperatureF,Dew PointF,Humidity,Sea Level PressureIn,VisibilityMPH,Wind Direction,Wind SpeedMPH,Gust SpeedMPH,PrecipitationIn,Events,Conditions,WindDirDegrees,DateUTC
12:15 AM,69.8,57.2,64,30.03,10.0,Calm,Calm,-,N/A,,Overcast,0,2013-08-19 05:15:00
12:35 AM,69.8,57.2,64,30.03,10.0,Calm,Calm,-,N/A,,Overcast,0,2013-08-19 05:35:00
12:55 AM,69.8,57.2,64,30.03,10.0,South,3.5,-,N/A,,Overcast,170,2013-08-19 05:55:00
1:15 AM,69.8,59.0,68,30.02,10.0,SSE,5.8,-,N/A,,Overcast,150,2013-08-19 06:15:00
1:35 AM,68.0,57.2,68,30.02,10.0,South,3.5,-,N/A,,Overcast,170,2013-08-19 06:35:00
1:55 AM,68.0,57.2,68,30.02,10.0,Calm,Calm,-,N/A,,Mostly Cloudy,0,2013-08-19 06:55:00
2:15 AM,68.0,57.2,68,30.02,10.0,Calm,Calm,-,N/A,,Scattered Clouds,0,2013-08-19 07:15:00
2:35 AM,66.2,59.0,78,30.01,10.0,Calm,Calm,-,N/A,,Scattered Clouds,0,2013-08-19 07:35:00
2:55 AM,66.2,57.2,73,30.00,10.0,South,3.5,-,N/A,,Mostly Cloudy,190,2013-08-19 07:55:00
3:15 AM,66.2,57.2,73,30.00,10.0,Calm,Calm,-,N/A,,Scattered Clouds,0,2013-08-19 08:15:00
3:35 AM,66.2,57.2,73,29.99,10.0,South,4.6,-,N/A,,Clear,190,2013-08-19 08:35:00
3:55 AM,66.2,57.2,73,29.98,10.0,Calm,Calm,-,N/A,,Clear,0,2013-08-19 08:55:00
4:16 AM,66.2,59.0,78,29.97,10.0,SE,4.6,-,N/A,,Clear,130,2013-08-19 09:16:00
4:35 AM,66.2,59.0,78,29.96,10.0,SSE,5.8,-,N/A,,Clear,160,2013-08-19 09:35:00
4:55 AM,66.2,59.0,78,29.97,10.0,Calm,Calm,-,N/A,,Clear,0,2013-08-19 09:55:00
5:16 AM,66.2,59.0,78,29.97,10.0,Calm,Calm,-,N/A,,Clear,0,2013-08-19 10:16:00
5:35 AM,66.2,59.0,78,29.97,10.0,SSE,3.5,-,N/A,,Clear,150,2013-08-19 10:35:00
5:55 AM,66.2,59.0,78,29.97,10.0,SSE,4.6,-,N/A,,Clear,150,2013-08-19 10:55:00
6:15 AM,66.2,59.0,78,29.97,10.0,SSE,3.5,-,N/A,Rain,Light Rain,160,2013-08-19 11:15:00
6:35 AM,66.2,59.0,78,29.97,10.0,SSE,3.5,-,N/A,,Overcast,160,2013-08-19 11:35:00
6:55 AM,66.2,60.8,83,29.97,7.0,SSE,5.8,-,N/A,Rain,Light Rain,160,2013-08-19 11:55:00
7:15 AM,64.4,60.8,88,29.96,7.0,SSE,4.6,-,N/A,Rain,Light Rain,160,2013-08-19 12:15:00
7:35 AM,64.4,60.8,88,29.97,7.0,SSE,4.6,-,0.01,,Scattered Clouds,160,2013-08-19 12:35:00
7:55 AM,66.2,62.6,88,29.97,7.0,SSE,3.5,-,0.01,Rain,Light Rain,160,2013-08-19 12:55:00
8:15 AM,66.2,62.6,88,29.96,7.0,SSE,3.5,-,N/A,,Clear,160,2013-08-19 13:15:00
8:35 AM,66.2,62.6,88,29.96,7.0,South,4.6,-,N/A,,Clear,170,2013-08-19 13:35:00
8:55 AM,69.8,62.6,78,29.96,7.0,South,3.5,-,N/A,,Clear,190,2013-08-19 13:55:00
9:15 AM,71.6,62.6,73,29.96,10.0,SSW,4.6,-,N/A,,Clear,200,2013-08-19 14:15:00
9:35 AM,73.4,62.6,69,29.95,10.0,South,3.5,-,N/A,,Clear,190,2013-08-19 14:35:00
9:55 AM,73.4,62.6,69,29.95,10.0,SSW,5.8,-,N/A,,Clear,210,2013-08-19 14:55:00
10:15 AM,75.2,62.6,65,29.96,10.0,SSW,6.9,-,N/A,,Clear,200,2013-08-19 15:15:00
10:35 AM,75.2,64.4,69,29.96,10.0,SSW,5.8,-,N/A,,Clear,210,2013-08-19 15:35:00
10:55 AM,77.0,64.4,65,29.96,10.0,WSW,8.1,-,N/A,,Clear,240,2013-08-19 15:55:00
11:15 AM,78.8,64.4,61,29.96,10.0,SSW,6.9,-,N/A,,Clear,210,2013-08-19 16:15:00
11:35 AM,78.8,64.4,61,29.96,10.0,SW,5.8,-,N/A,,Clear,230,2013-08-19 16:35:00
11:55 AM,80.6,66.2,61,29.96,10.0,SSW,4.6,-,N/A,,Clear,200,2013-08-19 16:55:00
12:15 PM,80.6,66.2,61,29.95,10.0,SW,4.6,-,N/A,,Unknown,220,2013-08-19 17:15:00
12:35 PM,80.6,66.2,61,29.95,10.0,SSE,3.5,-,N/A,,Clear,160,2013-08-19 17:35:00
12:55 PM,82.4,66.2,58,29.94,10.0,SSE,4.6,-,N/A,,Unknown,160,2013-08-19 17:55:00
1:15 PM,82.4,66.2,58,29.94,10.0,South,5.8,-,N/A,,Unknown,170,2013-08-19 18:15:00
1:35 PM,82.4,66.2,58,29.93,10.0,South,4.6,-,N/A,,Unknown,170,2013-08-19 18:35:00
1:55 PM,84.2,68.0,58,29.93,10.0,South,5.8,-,N/A,,Unknown,170,2013-08-19 18:55:00
2:15 PM,84.2,68.0,58,29.93,10.0,SSE,5.8,-,N/A,,Unknown,160,2013-08-19 19:15:00
2:35 PM,84.2,66.2,55,29.92,10.0,SSW,4.6,-,N/A,,Unknown,200,2013-08-19 19:35:00
2:55 PM,86.0,68.0,55,29.92,10.0,South,6.9,-,N/A,,Unknown,170,2013-08-19 19:55:00
3:15 PM,86.0,68.0,55,29.92,10.0,SSE,4.6,16.1,N/A,,Unknown,160,2013-08-19 20:15:00
3:35 PM,86.0,68.0,55,29.91,10.0,SSE,8.1,-,N/A,,Unknown,160,2013-08-19 20:35:00
3:55 PM,84.2,66.2,55,29.90,10.0,South,5.8,-,N/A,,Clear,180,2013-08-19 20:55:00
4:15 PM,84.2,66.2,55,29.90,10.0,South,3.5,-,N/A,,Clear,180,2013-08-19 21:15:00
4:35 PM,86.0,68.0,55,29.90,10.0,South,5.8,-,N/A,,Clear,170,2013-08-19 21:35:00
4:55 PM,86.0,68.0,55,29.90,10.0,SSE,8.1,-,N/A,,Clear,150,2013-08-19 21:55:00
5:15 PM,86.0,68.0,55,29.89,10.0,South,6.9,-,N/A,,Clear,170,2013-08-19 22:15:00
5:35 PM,84.2,68.0,58,29.89,10.0,South,3.5,-,N/A,,Clear,180,2013-08-19 22:35:00
5:55 PM,84.2,68.0,58,29.89,10.0,Calm,Calm,-,N/A,,Scattered Clouds,0,2013-08-19 22:55:00
6:15 PM,84.2,69.8,62,29.89,10.0,SSE,3.5,-,N/A,,Scattered Clouds,160,2013-08-19 23:15:00
6:35 PM,84.2,69.8,62,29.88,10.0,Calm,Calm,-,N/A,,Scattered Clouds,0,2013-08-19 23:35:00
6:55 PM,84.2,69.8,62,29.88,10.0,Calm,Calm,-,N/A,,Scattered Clouds,0,2013-08-19 23:55:00
7:15 PM,82.4,69.8,66,29.88,10.0,Calm,Calm,-,N/A,,Scattered Clouds,0,2013-08-20 00:15:00
7:35 PM,82.4,69.8,66,29.88,10.0,Calm,Calm,-,N/A,,Scattered Clouds,0,2013-08-20 00:35:00
7:55 PM,82.4,69.8,66,29.88,10.0,Calm,Calm,-,N/A,,Scattered Clouds,0,2013-08-20 00:55:00
8:15 PM,78.8,69.8,74,29.88,10.0,Calm,Calm,-,N/A,,Clear,0,2013-08-20 01:15:00
8:35 PM,77.0,69.8,78,29.89,10.0,SSE,3.5,-,N/A,,Scattered Clouds,160,2013-08-20 01:35:00
8:55 PM,77.0,69.8,78,29.89,10.0,Calm,Calm,-,N/A,,Scattered Clouds,0,2013-08-20 01:55:00
9:15 PM,77.0,69.8,78,29.90,10.0,SSE,3.5,-,N/A,,Mostly Cloudy,160,2013-08-20 02:15:00
9:35 PM,75.2,69.8,83,29.90,10.0,SSE,3.5,-,N/A,,Mostly Cloudy,160,2013-08-20 02:35:00
9:55 PM,75.2,69.8,83,29.90,10.0,SSE,4.6,-,N/A,,Mostly Cloudy,150,2013-08-20 02:55:00
10:15 PM,77.0,68.0,74,29.90,10.0,Calm,Calm,-,N/A,,Mostly Cloudy,0,2013-08-20 03:15:00
10:35 PM,78.8,68.0,69,29.90,10.0,South,3.5,-,N/A,,Mostly Cloudy,180,2013-08-20 03:35:00
10:55 PM,77.0,68.0,74,29.90,10.0,South,3.5,-,N/A,,Mostly Cloudy,170,2013-08-20 03:55:00
11:15 PM,77.0,68.0,74,29.90,10.0,SSE,3.5,-,N/A,,Scattered Clouds,160,2013-08-20 04:15:00
11:35 PM,75.2,68.0,78,29.90,10.0,SSE,4.6,-,N/A,,Mostly Cloudy,150,2013-08-20 04:35:00
11:55 PM,75.2,68.0,78,29.89,10.0,SSE,5.8,-,N/A,,Mostly Cloudy,160,2013-08-20 04:55:00